This demonstration page uses our WeatherBlox Daily Observations layout. Learn more.

Left ArrowRight Arrow

Hourly Observations for October 22, 2019

Temp ( °F °C ) Dew Point ( °F °C ) Humidity (%) Winds ( mph kmh ) Pressure ( in mb ) Visibility ( mi km ) Precip ( " mm )
12:09 am 00:09 Partly Cloudy 62 16.7 57 13.9 84 84 SSW 7 11 29.77 1008 10 16 0.00 0.00
12:53 am 00:53 Clear 62 16.7 57 13.9 84 84 undefined N/A 29.77 1008 10 16 0.00 0.00
1:53 am 01:53 Clear 61 16.1 56 13.3 84 84 VRB 7 11 29.78 1008 10 16 0.00 0.00
2:53 am 02:53 Mostly Clear 59 15 56 13.3 90 90 VRB 3 6 29.77 1008 10 16 0.00 0.00
3:53 am 03:53 Mostly Clear 57 13.9 55 12.8 93 93 SW 5 7 29.76 1008 10 16 0.00 0.00
4:53 am 04:53 Clear 54 12.2 53 11.7 97 97 Calm 29.75 1007 10 16 0.00 0.00
5:53 am 05:53 Clear 55 12.8 53 11.7 93 93 SSW 5 7 29.78 1008 10 16 0.00 0.00
6:53 am 06:53 Clear 55 12.8 52 11.1 90 90 VRB 5 7 29.77 1008 10 16 0.00 0.00
7:53 am 07:53 Clear 54 12.2 51 10.6 90 90 VRB 3 6 29.77 1008 10 16 0.00 0.00
8:53 am 08:53 Sunny 56 13.3 50 10 81 81 SW 8 13 29.78 1009 10 16 0.00 0.00
9:53 am 09:53 Sunny 57 13.9 46 7.8 67 67 SW 9 15 29.81 1009 10 16 0.00 0.00
10:53 am 10:53 Mostly Sunny 57 13.9 42 5.6 58 58 WSW 15 24 29.80 1009 10 16 0.00 0.00
11:53 am 11:53 Mostly Cloudy 61 16.1 42 5.6 50 50 W 16 26 29.81 1010 10 16 0.00 0.00
12:53 pm 12:53 Sunny 62 16.7 42 5.6 48 48 SW 13 20 29.81 1009 10 16 0.00 0.00
1:53 pm 13:53 Sunny 61 16.1 40 4.4 46 46 W 15 24 29.80 1009 10 16 0.00 0.00
2:53 pm 14:53 Mostly Sunny 63 17.2 39 3.9 41 41 WSW 14 22 29.80 1009 10 16 0.00 0.00
3:53 pm 15:53 Partly Cloudy 63 17.2 38 3.3 40 40 WSW 16 26 29.81 1009 10 16 0.00 0.00
4:53 pm 16:53 Mostly Cloudy 61 16.1 38 3.3 43 43 WSW 8 13 29.83 1010 10 16 0.00 0.00
5:53 pm 17:53 Mostly Cloudy 59 15 38 3.3 46 46 WSW 8 13 29.84 1011 10 16 0.00 0.00
6:53 pm 18:53 Partly Cloudy 57 13.9 38 3.3 49 49 WSW 7 11 29.86 1011 10 16 0.00 0.00
7:53 pm 19:53 Mostly Cloudy 54 12.2 40 4.4 59 59 VRB 5 7 29.89 1012 10 16 0.00 0.00
8:53 pm 20:53 Mostly Cloudy 50 10 42 5.6 74 74 Calm 29.92 1013 10 16 0.00 0.00
9:53 pm 21:53 Mostly Cloudy 50 10 42 5.6 74 74 WSW 3 6 29.93 1014 10 16 0.00 0.00
10:53 pm 22:53 Partly Cloudy 44 6.7 39 3.9 83 83 Calm 29.95 1014 10 16 0.00 0.00
11:53 pm 23:53 Clear 41 5 39 3.9 93 93 Calm 29.96 1014 10 16 0.00 0.00

Powered by AerisWeather